Akron, OH

12:46 PM EST on February 26, 2017 (GMT -0500)
Akron Fulton International

Weather History for KAKR - February, 2014

Change the Weather History Date:

Sunday, February 16, 2014

  Actual Average (KCAK) Record (KCAK)
Temperature  
Mean Temperature 16 °F -  
Max Temperature 24 °F 37 °F 63 °F (1954)
Min Temperature 8 °F 19 °F -11 °F (1904)
Degree Days  
Heating Degree Days 49    
Moisture  
Dew Point 13 °F    
Average Humidity 81    
Maximum Humidity 92    
Minimum Humidity 74    
Precipitation  
Precipitation 0.00 in - - ()
Sea Level Pressure  
Sea Level Pressure 30.08 in    
Wind  
Wind Speed 5 mph (WNW)    
Max Wind Speed 14 mph    
Max Gust Speed -    
Visibility 5 miles    
Events Snow    
Averages and records for this station are not official NWS values.
T = Trace of Precipitation, MM = Missing Value Source: NWS Daily Summary

Daily Weather History Graph

Daily Weather History Graph

Search for Another Location

Airport or City:

Trip Planner

Search our weather history database for the weather conditions in past years. The results will help you decide how hot, cold, wet, or windy it might be!

Date:

Astronomy

Feb. 16, 2014 Rise Set
Actual Time 7:18 AM EST 6:01 PM EST
Civil Twilight 6:50 AM EST 6:29 PM EST
Nautical Twilight 6:18 AM EST 7:01 PM EST
Astronomical Twilight 5:46 AM EST 7:33 PM EST
Moon 7:58 PM EST (2/16) 7:46 AM EST (2/16)
Length of Visible Light 11h 38m
Length of Day
10h 42m
Full, 97% of the Moon is Illuminated
Feb 16
Full
Feb 22
Last Quarter
Mar 1
New
Mar 8
First Quarter
Mar 16
Full

Hourly Weather History & Observations

Time (EST) Temp. Windchill Dew Point Humidity Pressure Visibility Wind Dir Wind Speed Gust Speed Precip Events Conditions
12:54 AM 12.9 °F 6.9 °F 6.1 °F 74% 30.07 in 10.0 mi SSW 3.5 mph - N/A   Overcast
1:27 AM 10.0 °F 1.8 °F 3.9 °F 76% 30.02 in 10.0 mi SSW 4.6 mph - N/A   Scattered Clouds
1:54 AM 8.1 °F 1.4 °F 3.0 °F 80% 30.07 in 10.0 mi SSW 3.5 mph - N/A   Clear
2:54 AM 10.0 °F 1.8 °F 6.1 °F 84% 30.06 in 9.0 mi South 4.6 mph - N/A   Partly Cloudy
3:54 AM 10.0 °F - 5.0 °F 80% 30.04 in 8.0 mi Calm Calm - N/A   Clear
4:54 AM 10.0 °F - 7.0 °F 87% 30.04 in 7.0 mi Calm Calm - N/A   Mostly Cloudy
5:47 AM 12.0 °F - 8.1 °F 84% 29.98 in 8.0 mi Calm Calm - N/A   Overcast
5:54 AM 12.0 °F 4.1 °F 8.1 °F 84% 30.03 in 8.0 mi SSE 4.6 mph - N/A   Overcast
6:16 AM 12.9 °F 6.9 °F 8.1 °F 81% 29.96 in 8.0 mi South 3.5 mph - N/A   Overcast
6:54 AM 14.0 °F 3.9 °F 8.1 °F 77% 29.99 in 8.0 mi South 6.9 mph - N/A   Overcast
7:51 AM 15.8 °F 10.2 °F 10.4 °F 79% 29.95 in 7.0 mi SE 3.5 mph - N/A   Overcast
7:54 AM 15.1 °F 9.4 °F 10.0 °F 80% 30.01 in 7.0 mi SE 3.5 mph - N/A   Overcast
8:54 AM 16.0 °F 10.4 °F 10.9 °F 81% 30.01 in 7.0 mi SSE 3.5 mph - N/A   Overcast
9:31 AM 17.1 °F 11.7 °F 12.0 °F 81% 29.96 in 1.8 mi South 3.5 mph - 0.00 in Snow Light Snow
9:54 AM 18.0 °F 12.7 °F 14.0 °F 84% 30.03 in 0.8 mi South 3.5 mph - 0.00 in Snow Light Snow
10:13 AM 18.0 °F 8.7 °F 14.0 °F 84% 29.97 in 1.0 mi SSW 6.9 mph - 0.00 in Snow Light Snow
10:40 AM 19.0 °F 11.1 °F 15.1 °F 85% 29.97 in 1.0 mi South 5.8 mph - 0.00 in Snow Light Snow
10:54 AM 19.0 °F 9.0 °F 15.1 °F 85% 30.02 in 1.0 mi SSW 8.1 mph - 0.00 in Snow Light Snow
11:38 AM 19.9 °F 12.1 °F 16.0 °F 85% 29.97 in 2.0 mi Variable 5.8 mph - 0.00 in Snow Light Snow
11:54 AM 19.9 °F 12.1 °F 16.0 °F 85% 30.02 in 2.0 mi WSW 5.8 mph - 0.00 in Snow Light Snow
12:06 PM 19.9 °F 13.4 °F 16.0 °F 85% 29.96 in 1.8 mi WSW 4.6 mph - 0.00 in Snow Light Snow
12:33 PM 21.0 °F 12.4 °F 17.1 °F 85% 29.96 in 2.0 mi WSW 6.9 mph - 0.00 in Snow Light Snow
12:40 PM 21.9 °F 15.7 °F 17.1 °F 82% 29.95 in 2.0 mi West 4.6 mph - 0.00 in Snow Light Snow
12:45 PM 21.9 °F 12.5 °F 17.1 °F 82% 29.95 in 1.8 mi West 8.1 mph - 0.00 in Snow Light Snow
12:54 PM 21.9 °F 13.4 °F 17.1 °F 82% 30.00 in 2.0 mi West 6.9 mph - 0.00 in Snow Light Snow
1:01 PM 21.9 °F 12.5 °F 17.1 °F 82% 29.95 in 2.0 mi West 8.1 mph - 0.00 in Snow Light Snow
1:14 PM 21.9 °F 11.7 °F 16.0 °F 78% 29.95 in 3.0 mi West 9.2 mph - 0.00 in Snow Light Snow
1:54 PM 23.0 °F 13.9 °F 17.1 °F 78% 30.02 in 3.0 mi West 8.1 mph - 0.00 in Snow Light Snow
2:13 PM 24.1 °F 13.7 °F 17.1 °F 75% 29.97 in 2.5 mi NW 10.4 mph - 0.00 in Snow Light Snow
2:54 PM 24.1 °F 13.7 °F 17.1 °F 75% 30.04 in 2.0 mi WNW 10.4 mph - 0.00 in Snow Light Snow
3:43 PM 23.0 °F 13.9 °F 17.1 °F 78% 30.01 in 1.5 mi WNW 8.1 mph - 0.00 in Snow Light Snow
3:54 PM 23.0 °F 11.7 °F 18.0 °F 81% 30.08 in 1.2 mi WNW 11.5 mph - 0.00 in Snow Light Snow
4:15 PM 23.0 °F 11.7 °F 17.1 °F 78% 30.04 in 2.0 mi NW 11.5 mph - 0.00 in Snow Light Snow
4:30 PM 23.0 °F 13.1 °F 17.1 °F 78% 30.05 in 1.8 mi NNW 9.2 mph - 0.00 in Snow Light Snow
4:41 PM 23.0 °F 13.1 °F 18.0 °F 81% 30.06 in 2.0 mi North 9.2 mph - 0.00 in Snow Light Snow
4:54 PM 21.9 °F 9.8 °F 17.1 °F 82% 30.13 in 1.5 mi NNW 12.7 mph - 0.00 in Snow Light Snow
5:04 PM 21.9 °F 11.7 °F 17.1 °F 82% 30.08 in 2.5 mi NNW 9.2 mph - 0.00 in Snow Light Snow
5:14 PM 21.9 °F 9.2 °F 16.0 °F 78% 30.09 in 3.0 mi NNW 13.8 mph - 0.00 in Snow Light Snow
5:54 PM 21.0 °F 9.3 °F 15.1 °F 78% 30.17 in 4.0 mi North 11.5 mph - 0.00 in   Haze
6:54 PM 19.9 °F 10.1 °F 15.1 °F 81% 30.23 in 3.0 mi NNW 8.1 mph - 0.00 in Snow Light Snow
7:54 PM 19.0 °F 6.8 °F 12.0 °F 74% 30.27 in 8.0 mi North 11.5 mph - 0.00 in   Overcast
8:25 PM 17.1 °F 5.8 °F 12.0 °F 81% 30.23 in 7.0 mi North 9.2 mph - N/A   Overcast
8:54 PM 17.1 °F 5.0 °F 10.9 °F 77% 30.30 in 6.0 mi North 10.4 mph - N/A   Haze
9:06 PM 16.0 °F 8.8 °F 10.0 °F 77% 30.25 in 6.0 mi North 4.6 mph - N/A   Haze
9:54 PM 16.0 °F 5.3 °F 10.9 °F 81% 30.34 in 6.0 mi North 8.1 mph - N/A   Haze
10:54 PM 15.1 °F 3.3 °F 10.9 °F 84% 30.36 in 6.0 mi North 9.2 mph - N/A   Overcast
11:26 PM 12.9 °F 5.2 °F 10.0 °F 88% 30.30 in 6.0 mi North 4.6 mph - N/A   Overcast
11:37 PM 12.0 °F 2.7 °F 9.0 °F 88% 30.30 in 6.0 mi North 5.8 mph - N/A   Mostly Cloudy
11:52 PM 10.4 °F 2.2 °F 8.6 °F 92% 30.31 in 9.0 mi North 4.6 mph - N/A   Scattered Clouds
11:54 PM 10.9 °F 2.9 °F 8.1 °F 88% 30.37 in 8.0 mi NNW 4.6 mph - N/A   Partly Cloudy